sat.trackr.live / text

‹ back to catalog

STARLINK-36751

NORAD 67729 · 2026-026J

PAYLOAD ACTIVE UNKNOWN

§ Identity

Operator
Country
US
Launch date
2026-02-11
Launch site
AFWTR
Launch vehicle
Mass (kg)
RCS (m²)

Purposes: comms

External: N2YO · Heavens-Above · Gunter

§ Orbital elements

Epoch: 2026-09-19T20:59:16.024992Z

Period
93.91 min
Inclination
97.2857°
Eccentricity
0.0001208
Mean motion
15.33452151 rev/d
Perigee alt
464.7 km
Apogee alt
466.3 km
Semi-major
6,843.7 km
B*
6.1891e-4
RAAN
314.6988°
Arg perigee
97.2886°
Mean anomaly
262.8494°
Rev number
3,388

§ Raw data

STARLINK-367511 67729U 26026J   26262.87449103  .00019963  00000+0  61891-3 0  99962 67729  97.2857 314.6988 0001208  97.2886 262.8494 15.33452151 33888

JSON: /api/v1/satellites/67729 · /tle

For live sub-satellite position, see the globe view (requires WebGL).

§ Visibility from observer

Set your observer location to see the next 7 days of passes ≥ 10°. The values pass through the URL so the page stays shareable.

No JS? Fill the form by hand. The geolocation button needs JavaScript.